Dublin, VA

6:04 AM EST on December 12, 2019 (GMT -0500)
New River Valley

Weather History for KPSK - October, 2019

Change the Weather History Date:

Saturday, October 19, 2019

  Actual Average (KBCB) Record (KBCB)
Temperature  
Mean Temperature 47 °F -  
Max Temperature 61 °F 64 °F 83 °F (2016)
Min Temperature 33 °F 38 °F 25 °F (1970)
Degree Days  
Heating Degree Days 18    
Moisture  
Dew Point 41 °F    
Average Humidity 81    
Maximum Humidity 100    
Minimum Humidity 46    
Precipitation  
Precipitation 0.21 in - - ()
Sea Level Pressure  
Sea Level Pressure 30.06 in    
Wind  
Wind Speed 1 mph (South)    
Max Wind Speed 8 mph    
Max Gust Speed -    
Visibility 10 miles    
Events Rain    
Averages and records for this station are not official NWS values.
T = Trace of Precipitation, MM = Missing Value Source: NWS Daily Summary

Daily Weather History Graph

Daily Weather History Graph

Search for Another Location

Airport or City:

Astronomy

Oct. 19, 2019 Rise Set
Actual Time 7:34 AM EDT 6:40 PM EDT
Civil Twilight 7:07 AM EDT 7:07 PM EDT
Nautical Twilight 6:37 AM EDT 7:37 PM EDT
Astronomical Twilight 6:07 AM EDT 8:07 PM EDT
Moon 10:53 PM EDT (10/19) 12:59 PM EDT (10/19)
Length of Visible Light 11h 59m
Length of Day
11h 06m
Waning Gibbous, 70% of the Moon is Illuminated
Oct 19
Waning Gibbous
Oct 21
Last Quarter
Oct 27
New
Nov 4
First Quarter
Nov 12
Full

Hourly Weather History & Observations

Time (EDT) Temp. Windchill Dew Point Humidity Pressure Visibility Wind Dir Wind Speed Gust Speed Precip Events Conditions
12:15 AM 41.4 °F - 37.6 °F 86% 30.07 in 10.0 mi Calm Calm - N/A   Clear
12:35 AM 40.6 °F - 37.4 °F 88% 30.07 in 10.0 mi Calm Calm - N/A   Clear
12:55 AM 37.6 °F 35.1 °F 36.5 °F 96% 30.07 in 10.0 mi WNW 3.5 mph - N/A   Clear
1:15 AM 38.1 °F - 36.7 °F 95% 30.07 in 10.0 mi Calm Calm - N/A   Clear
1:35 AM 38.3 °F - 36.7 °F 94% 30.07 in 10.0 mi Calm Calm - N/A   Clear
1:55 AM 38.7 °F - 36.9 °F 93% 30.07 in 10.0 mi Calm Calm - N/A   Clear
2:15 AM 36.7 °F - 36.1 °F 98% 30.08 in 10.0 mi Calm Calm - N/A   Clear
2:35 AM 38.5 °F - 36.5 °F 93% 30.08 in 10.0 mi Calm Calm - N/A   Clear
2:55 AM 37.6 °F - 36.1 °F 95% 30.08 in 10.0 mi Calm Calm - N/A   Clear
3:15 AM 38.1 °F - 36.7 °F 95% 30.08 in 10.0 mi Calm Calm - N/A   Clear
3:35 AM 37.6 °F - 36.0 °F 94% 30.08 in 10.0 mi Calm Calm - N/A   Clear
3:55 AM 37.2 °F - 36.5 °F 97% 30.08 in 10.0 mi Calm Calm - N/A   Clear
4:15 AM 36.9 °F - 36.0 °F 97% 30.08 in 10.0 mi Calm Calm - N/A   Clear
4:35 AM 36.9 °F - 36.1 °F 97% 30.07 in 10.0 mi Calm Calm - N/A   Clear
4:55 AM 36.5 °F - 35.4 °F 96% 30.08 in 10.0 mi Calm Calm - N/A   Clear
5:15 AM 35.1 °F - 34.7 °F 99% 30.07 in 10.0 mi Calm Calm - N/A   Clear
5:35 AM 35.1 °F - 35.1 °F 100% 30.08 in 10.0 mi Calm Calm - N/A   Clear
5:55 AM 35.4 °F - 35.4 °F 100% 30.07 in 10.0 mi Calm Calm - N/A   Clear
6:15 AM 34.3 °F - 34.3 °F 100% 30.08 in 10.0 mi Calm Calm - N/A   Clear
6:35 AM 33.8 °F - 33.8 °F 100% 30.09 in 10.0 mi Calm Calm - N/A   Clear
6:55 AM 34.7 °F - 34.7 °F 100% 30.09 in 10.0 mi Calm Calm - N/A   Clear
7:15 AM 34.3 °F - 34.0 °F 99% 30.09 in 10.0 mi Calm Calm - N/A   Clear
7:35 AM 34.7 °F - 34.3 °F 99% 30.09 in 10.0 mi Calm Calm - N/A   Clear
7:55 AM 35.6 °F - 35.6 °F 100% 30.09 in 10.0 mi Calm Calm - N/A   Clear
8:15 AM 34.0 °F - 34.0 °F 100% 30.09 in 10.0 mi Calm Calm - N/A   Clear
8:35 AM 35.6 °F - 35.6 °F 100% 30.10 in 10.0 mi Calm Calm - N/A   Clear
8:55 AM 36.5 °F - 36.5 °F 100% 30.10 in 10.0 mi Calm Calm - N/A   Clear
9:35 AM 40.3 °F - 39.2 °F 96% 30.11 in 10.0 mi Calm Calm - N/A   Clear
9:55 AM 42.8 °F - 40.6 °F 92% 30.12 in 10.0 mi Calm Calm - N/A   Clear
10:15 AM 44.6 °F - 41.5 °F 89% 30.12 in 10.0 mi Calm Calm - N/A   Clear
10:35 AM 46.0 °F - 42.8 °F 88% 30.12 in 10.0 mi Calm Calm - N/A   Clear
10:55 AM 47.7 °F - 43.0 °F 84% 30.12 in 10.0 mi Calm Calm - N/A   Clear
11:15 AM 50.0 °F - 44.1 °F 80% 30.12 in 10.0 mi Calm Calm - N/A   Clear
11:35 AM 52.5 °F - 44.8 °F 75% 30.12 in 10.0 mi NE 3.5 mph - N/A   Clear
11:55 AM 54.7 °F - 45.0 °F 70% 30.12 in 10.0 mi SE 3.5 mph - N/A   Clear
12:15 PM 56.5 °F - 43.3 °F 61% 30.11 in 10.0 mi SSE 6.9 mph - N/A   Clear
12:35 PM 57.4 °F - 42.8 °F 58% 30.10 in 10.0 mi South 3.5 mph - N/A   Clear
12:55 PM 58.3 °F - 43.3 °F 58% 30.10 in 10.0 mi South 4.6 mph - N/A   Clear
1:15 PM 59.0 °F - 43.0 °F 55% 30.08 in 10.0 mi SW 3.5 mph - N/A   Clear
1:35 PM 60.1 °F - 42.6 °F 53% 30.07 in 10.0 mi South 5.8 mph - N/A   Clear
1:55 PM 61.0 °F - 41.5 °F 49% 30.06 in 10.0 mi South 5.8 mph - N/A   Clear
2:15 PM 61.0 °F - 41.0 °F 48% 30.05 in 10.0 mi South 8.1 mph - N/A   Clear
2:35 PM 60.6 °F - 39.6 °F 46% 30.04 in 10.0 mi South 8.1 mph - N/A   Clear
2:55 PM 60.1 °F - 40.6 °F 49% 30.03 in 10.0 mi South 4.6 mph - N/A   Clear
3:15 PM 61.0 °F - 41.5 °F 49% 30.03 in 10.0 mi South 4.6 mph - N/A   Clear
3:35 PM 60.8 °F - 40.5 °F 47% 30.03 in 10.0 mi SSE 6.9 mph - N/A   Clear
3:55 PM 60.3 °F - 41.0 °F 49% 30.03 in 10.0 mi SSE 8.1 mph - N/A   Clear
4:15 PM 60.1 °F - 40.6 °F 49% 30.03 in 10.0 mi South 8.1 mph - N/A   Clear
4:35 PM 59.9 °F - 40.6 °F 49% 30.03 in 10.0 mi South 6.9 mph - N/A   Clear
4:55 PM 59.5 °F - 41.4 °F 51% 30.02 in 10.0 mi South 6.9 mph - N/A   Clear
5:15 PM 59.0 °F - 40.6 °F 51% 30.02 in 10.0 mi South 8.1 mph - N/A   Clear
5:35 PM 58.3 °F - 41.9 °F 54% 30.02 in 10.0 mi SSW 6.9 mph - N/A   Scattered Clouds
5:55 PM 57.4 °F - 42.3 °F 57% 30.02 in 10.0 mi South 4.6 mph - N/A   Mostly Cloudy
6:15 PM 57.0 °F - 43.7 °F 61% 30.02 in 10.0 mi South 3.5 mph - N/A Rain Light Rain
6:35 PM 55.9 °F - 45.3 °F 68% 30.01 in 10.0 mi Calm Calm - N/A Rain Light Rain
6:55 PM 55.4 °F - 45.7 °F 70% 30.01 in 10.0 mi Calm Calm - N/A   Overcast
7:15 PM 54.9 °F - 46.4 °F 73% 30.01 in 10.0 mi Calm Calm - N/A Rain Light Rain
7:55 PM 54.5 °F - 45.9 °F 73% 30.01 in 10.0 mi Calm Calm - N/A   Mostly Cloudy
8:15 PM 53.6 °F - 46.6 °F 77% 30.01 in 10.0 mi SSE 3.5 mph - N/A Rain Light Rain
8:35 PM 53.4 °F - 47.8 °F 81% 30.02 in 10.0 mi Calm Calm - N/A Rain Light Rain
8:55 PM 52.5 °F - 49.5 °F 89% 30.03 in 10.0 mi West 3.5 mph - 0.03 in Rain Rain
9:15 PM 50.9 °F - 49.3 °F 94% 30.03 in 10.0 mi Calm Calm - 0.01 in Rain Light Rain
9:35 PM 50.4 °F - 49.3 °F 96% 30.03 in 5.0 mi Calm Calm - 0.03 in Rain Rain
9:55 PM 50.2 °F - 49.1 °F 96% 30.03 in 5.0 mi Calm Calm - 0.04 in Rain Rain
10:15 PM 50.0 °F - 49.8 °F 99% 30.03 in 4.0 mi Calm Calm - 0.02 in Rain Rain
10:35 PM 50.0 °F - 49.5 °F 98% 30.02 in 3.0 mi Calm Calm - 0.05 in Rain Rain
10:55 PM 49.6 °F - 49.6 °F 100% 30.01 in 5.0 mi NNE 4.6 mph - 0.09 in Rain Rain
11:15 PM 49.1 °F - 49.1 °F 100% 30.01 in 7.0 mi NE 3.5 mph - 0.02 in Rain Rain
11:35 PM 49.1 °F - 49.1 °F 100% 29.99 in 10.0 mi NE 4.6 mph - 0.04 in Rain Light Rain
11:55 PM 49.1 °F - 49.1 °F 100% 29.99 in 10.0 mi ENE 4.6 mph - 0.05 in Rain Rain